[Iaude] MPEC F108: 2024 FG3 [a=1.25,e=0.25,i=26.2,H=25.2]

mpec at cfa.harvard.edu mpec at cfa.harvard.edu
Sat Mar 30 19:25:03 EDT 2024


M.P.E.C. 2024-F108                               Issued 2024 March 30, 23:23 UT

     The Minor Planet Electronic Circulars contain information on unusual
         minor planets, routine data on comets and natural satellites,
         and occasional editorial announcements.  They are published
    on behalf of Division F of the International Astronomical Union by the
          Minor Planet Center, Smithsonian Astrophysical Observatory,
                          Cambridge, MA 02138, U.S.A.
			  
             Prepared using the Tamkin Foundation Computer Network

                              MPC at CFA.HARVARD.EDU
            URL https://www.minorplanetcenter.net/    ISSN 1523-6714

                                    2024 FG3                                    


Observations:
     K24F03G 1C2024 03 28.32322 13 10 41.85 +51 21 01.7          20.5 GVEF108G96
     K24F03G 1C2024 03 28.32850 13 10 33.99 +51 20 40.8                VEF108G96
     K24F03G  C2024 03 28.48195113 06 49.655+51 10 47.97         20.47GVEF108F52
     K24F03G  C2024 03 28.49329813 06 31.768+51 09 58.42         20.30GVEF108F52
     K24F03G  C2024 03 28.50459313 06 13.796+51 09 07.55         21.02GVEF108F52
     K24F03G  C2024 03 28.51584713 05 56.039+51 08 16.43         20.44GVEF108F52
     K24F03G*1C2024 03 30.25794212 11 23.863+47 22 20.10         19.40GVEF108G96
     K24F03G 1C2024 03 30.26320212 11 10.846+47 21 14.08         19.52GVEF108G96
     K24F03G 1C2024 03 30.26847712 10 57.713+47 20 07.44         19.55GVEF108G96
     K24F03G 1C2024 03 30.27378312 10 44.447+47 18 59.98               VEF108G96
     K24F03G mC2024 03 30.38642112 06 01.670+46 53 35.74         19.60GVEF108I52
     K24F03G mC2024 03 30.38661412 06 01.213+46 53 32.89         19.29GVEF108I52
     K24F03G mC2024 03 30.38680712 06 00.738+46 53 29.98         19.80GVEF108I52
     K24F03G mC2024 03 30.38700712 06 00.212+46 53 26.95         19.50GVEF108I52
     K24F03G KB2024 03 30.62203 11 56 34.73 +45 55 37.0          20.1 GVEF108O46
     K24F03G KB2024 03 30.63122 11 56 09.96 +45 53 13.4          21.1 GVEF108O46
     K24F03G KB2024 03 30.64043 11 55 45.07 +45 50 48.2          19.9 GVEF108O46
     K24F03G KC2024 03 30.85223611 46 28.190+44 47 35.95         18.9 GVEF108J95
     K24F03G KC2024 03 30.85410811 46 22.930+44 47 02.36         18.6 GVEF108J95
     K24F03G KC2024 03 30.85593911 46 17.851+44 46 29.57         19.2 GVEF108J95
     K24F03G KC2024 03 30.85779711 46 12.701+44 45 56.38         18.7 GVEF108J95
     K24F03G KB2024 03 30.90451311 44 02.17 +44 32 07.7          19.7 GXEF108958
     K24F03G KB2024 03 30.90873511 43 50.14 +44 30 48.2          19.7 GXEF108958
     K24F03G KB2024 03 30.91292711 43 38.13 +44 29 30.1          19.6 GXEF108958

Observer details:
958 Observatoire de Dax.  Observer P. Dupouy.  0.50-m f/4.5 Reflector + CMO.
F52 Pan-STARRS 2, Haleakala.  Observers J. Herman, T. Lowe, P. Minguez, A.
    Schultz, I. Smith.  Measurers K. Chambers, T. de Boer, J. Fairlamb, H.
    Gao, M. Huber, C.-C. Lin, E. Magnier, Y. Ramanjooloo, R. Wainscoat, R.
    Weryk.  1.8-m Ritchey-Chretien + CCD.
G96 Mt. Lemmon Survey.  Observers V. F. Carvajal, J. B. Fazekas.  Measurers B.
    Gray, D. Rankin, F. C. Shelly, T. Beuden, V. F. Carvajal, D. Fay, J. B.
    Fazekas, D. C. Fuls, A. R. Gibbs, A. D. Grauer, H. Groeller, J. K. Hogan,
    R. A. Kowalski, S. M. Larson, G. J. Leonard, R. L. Seaman, K. W.
    Wierzchos.  1.5-m reflector + 10K CCD.
I52 Steward Observatory, Mt. Lemmon Station.  Observers T. Beuden, H.
    Groeller.  Measurers T. Beuden, V. F. Carvajal, D. Fay, J. B. Fazekas, D.
    C. Fuls, A. R. Gibbs, A. D. Grauer, H. Groeller, J. K. Hogan, R. A.
    Kowalski, S. M. Larson, G. J. Leonard, D. Rankin, R. L. Seaman, F. C.
    Shelly, K. W. Wierzchos.  1.0-m prime focus + CCD.
J95 Great Shefford.  Observer P. Birtwhistle.  0.41-m f/6.3 Schmidt-Cassegrain
    + CCD.
O46 Daocheng Glacier Observatory.  Observer Z. Wang.  0.25-m f/8 reflector +
    CMO.

Orbital elements:
2024 FG3                                                 Earth MOID = 0.0117 AU
Epoch 2024 Mar. 31.0 TT = JDT 2460400.5                 MPC                     
M 326.51848              (2000.0)            P               Q                  
n   0.70557897     Peri.  232.09528     -0.45572165     +0.88549696             
a   1.2496037      Node    11.85812     -0.61326004     -0.23855009             
e   0.2531496      Incl.   26.16908     -0.64515882     -0.39873422             
P   1.40           H   25.23          G   0.15           U   7                  
Residuals in seconds of arc
240328 G96  0.1+  0.1+    240330 G96  0.4-  0.1-    240330 O46  0.3+  0.1-
240328 G96  1.1+  0.6-    240330 G96  1.6-  0.2-    240330 J95  0.1+  0.4-
240328 F52  0.6-  0.2-    240330 I52  0.2-  0.1+    240330 J95  0.4-  0.2-
240328 F52  0.1-  0.0     240330 I52  0.1+  0.1+    240330 J95  0.1-  0.1+
240328 F52  0.8-  0.2-    240330 I52  0.2+  0.1-    240330 J95  0.2+  0.5+
240328 F52  0.2+  0.0     240330 I52  0.0   0.2-    240330 958  0.5+  0.8-
240330 G96  0.5+  0.1+    240330 O46  0.3+  0.1+    240330 958  0.7+  0.8-
240330 G96  0.3+  0.0     240330 O46  0.2+  0.0     240330 958  0.3+  0.3+

Ephemeris:
2024 FG3                 a,e,i = 1.25, 0.25, 26                  q = 0.9333
Date    TT    R. A. (2000) Decl.     Delta      r    Elong.  Phase     V
2024 02 29    14 59 14.9 +50 37 50   0.2919  1.1356   112.7    53.6    24.8
...
2024 03 15    14 52 35.3 +52 18 12   0.1650  1.0769   116.0    56.1    23.5
...
2024 03 23    14 21 30.0 +52 57 46   0.09661 1.0475   119.4    56.0    22.3
...
2024 03 29    12 53 17.1 +50 26 12   0.04689 1.0266   126.0    51.9    20.6
2024 03 30    12 21 06.9 +48 11 59   0.03926 1.0233   128.0    50.3    20.1
2024 03 31    11 39 32.5 +44 01 11   0.03221 1.0200   130.1    48.5    19.6
...
2024 04 06    06 41 30.5 -32 59 50   0.03492 1.0011    89.6    88.4    21.1
...
2024 04 14    04 55 25.5 -47 55 50   0.09938 0.9787    73.1   101.3    23.9
...
2024 04 29    04 10 42.8 -49 52 22   0.2231  0.9476    68.3    99.0    25.4

A. U. Tomatic                (C) Copyright 2024 MPC           M.P.E.C. 2024-F108





More information about the Iaude mailing list